GW1639 Weather Reports


Display with metric or nautical units.
time (UTC)temp
F
wind
direction
speed
MPH
gust
MPH
rain 1hr
in
rain 24hr
in
rain mn
in
humidity
%
barometer
mb
20221206214424 65 128 0.0 0.0 0.00 0.00 0.00 99 1062.8
20221206213924 65 128 0.0 0.0 0.00 0.00 0.00 99 1062.6
20221206213423 65 128 0.0 0.0 0.00 0.00 0.00 99 1062.5
20221206212922 65 128 0.0 0.0 0.00 0.00 0.00 99 1062.6
20221206212422 65 128 0.0 0.0 0.00 0.00 0.00 99 1062.6
20221206211921 65 126 0.0 0.0 0.00 0.00 0.00 99 1062.4
20221206211419 65 159 0.0 0.0 0.00 0.00 0.00 99 1062.5
20221206210917 65 148 0.0 0.0 0.00 0.00 0.00 99 1062.5
20221206210415 65 148 0.0 0.0 0.00 0.00 0.00 99 1062.6
20221206205913 65 148 0.0 0.0 0.00 0.00 0.00 99 1062.5
20221206205413 65 148 0.0 0.0 0.00 0.00 0.00 99 1062.4
20221206204911 65 148 0.0 0.0 0.00 0.00 0.00 99 1062.4
20221206204410 65 148 0.0 0.0 0.00 0.00 0.00 99 1062.2
20221206203909 65 145 0.0 0.0 0.00 0.00 0.00 99 1062.3
20221206203408 65 131 0.0 0.0 0.00 0.00 0.00 99 1062.3
20221206202905 65 131 0.0 0.0 0.00 0.00 0.00 99 1062.3
20221206202405 66 132 0.0 0.0 0.00 0.00 0.00 99 1062.2
20221206201904 65 132 0.0 0.0 0.00 0.00 0.00 99 1062.3
20221206201403 65 132 0.0 0.0 0.00 0.00 0.00 99 1062.1
20221206200903 65 132 0.0 0.0 0.00 0.00 0.00 99 1062.1
20221206200401 65 131 0.0 0.0 0.00 0.00 0.00 99 1062.3
20221206195901 65 133 0.0 0.0 0.00 0.00 0.00 99 1062.2
20221206195400 65 141 0.0 0.0 0.00 0.00 0.00 99 1062.3
20221206194859 65 141 0.0 0.0 0.00 0.00 0.00 99 1062.2
20221206194355 66 141 0.0 0.0 0.00 0.00 0.00 99 1062.3
20221206193854 66 141 0.0 0.0 0.00 0.00 0.00 99 1062.4
20221206193354 66 125 0.0 0.0 0.00 0.00 0.00 99 1062.5
20221206192853 66 124 0.0 0.0 0.00 0.00 0.00 99 1062.5
20221206192353 66 124 0.0 0.0 0.00 0.00 0.00 99 1062.1
20221206191852 66 124 0.0 0.0 0.00 0.00 0.00 99 1062.4
20221206191352 66 124 0.0 0.0 0.00 0.00 0.00 99 1062.3
20221206190851 66 124 0.0 0.0 0.00 0.00 0.00 99 1062.5
20221206190351 66 124 0.0 0.0 0.00 0.00 0.00 99 1062.3
20221206185851 66 129 0.0 0.0 0.00 0.00 0.00 99 1062.4
20221206185349 66 129 0.0 0.0 0.00 0.00 0.00 99 1062.4
20221206184848 66 129 0.0 0.0 0.00 0.00 0.00 99 1062.5
20221206184347 66 129 0.0 0.0 0.00 0.00 0.00 99 1062.3
20221206183846 66 129 0.0 0.0 0.00 0.00 0.00 99 1062.3
20221206183345 66 129 0.0 0.0 0.00 0.00 0.00 99 1062.5
20221206182844 66 128 0.0 0.0 0.00 0.00 0.00 99 1062.5
20221206182343 66 129 0.0 0.0 0.00 0.00 0.00 99 1062.6
20221206181842 66 144 0.0 0.0 0.00 0.00 0.00 99 1062.4
20221206181341 66 136 0.0 0.0 0.00 0.00 0.00 99 1062.6
20221206180839 66 137 0.0 0.0 0.00 0.00 0.00 99 1062.4
20221206180338 66 141 0.0 0.0 0.00 0.00 0.00 99 1062.7
20221206175838 66 131 0.0 0.0 0.00 0.00 0.00 99 1062.7
20221206175337 66 131 0.0 0.0 0.00 0.00 0.00 99 1062.4
20221206174836 66 131 0.0 0.0 0.00 0.00 0.00 99 1062.5
20221206174334 66 131 0.0 0.0 0.00 0.00 0.00 99 1062.4
20221206173832 66 132 0.0 0.0 0.00 0.00 0.00 99 1062.4
20221206173330 66 132 0.0 0.0 0.00 0.00 0.00 99 1062.6
20221206172828 66 133 0.0 0.0 0.00 0.00 0.00 99 1062.4
20221206172328 66 151 0.0 0.0 0.00 0.00 0.00 99 1062.5
20221206171827 67 152 0.0 0.0 0.00 0.00 0.00 99 1062.5
20221206171327 67 152 0.0 0.0 0.00 0.00 0.00 99 1062.4
20221206170826 67 151 0.0 0.0 0.00 0.00 0.00 99 1062.6
20221206170326 67 150 0.0 0.0 0.00 0.00 0.00 99 1062.4
20221206165825 67 150 0.0 0.0 0.00 0.00 0.00 99 1062.4
20221206165323 67 150 0.0 0.0 0.00 0.00 0.00 99 1062.5
20221206164823 67 150 0.0 0.0 0.00 0.00 0.00 99 1062.5
20221206164323 67 149 0.0 0.0 0.00 0.00 0.00 99 1062.4
20221206163823 67 146 0.0 0.0 0.00 0.00 0.00 99 1062.6
20221206163321 67 145 0.0 0.0 0.00 0.00 0.00 99 1062.6
20221206162820 67 145 0.0 0.0 0.00 0.00 0.00 99 1062.6
20221206162320 67 146 0.0 0.0 0.00 0.00 0.00 99 1062.7
20221206161818 67 146 0.0 0.0 0.00 0.00 0.00 99 1062.6
20221206161316 67 146 0.0 0.0 0.00 0.00 0.00 99 1062.7
20221206160814 67 146 0.0 0.0 0.00 0.00 0.00 99 1062.7
20221206160314 68 146 0.0 0.0 0.00 0.00 0.00 99 1062.8
20221206155813 68 147 0.0 0.0 0.00 0.00 0.00 99 1062.7
20221206155312 67 139 0.0 0.0 0.00 0.00 0.00 99 1062.8
20221206154811 68 133 0.0 0.0 0.00 0.00 0.00 99 1062.6
20221206154309 68 128 0.0 0.0 0.00 0.00 0.00 99 1062.7
20221206153808 68 118 0.0 0.0 0.00 0.00 0.00 99 1062.7
20221206153307 68 127 0.0 0.0 0.00 0.00 0.00 99 1062.8
20221206152806 68 127 0.0 0.0 0.00 0.00 0.00 99 1062.6
20221206152305 68 127 0.0 0.0 0.00 0.00 0.00 99 1062.7
20221206151802 68 127 0.0 0.0 0.00 0.00 0.00 99 1062.7
20221206151302 68 127 0.0 0.0 0.00 0.00 0.00 99 1062.7
20221206150801 68 127 0.0 0.0 0.00 0.00 0.00 99 1062.9
20221206150300 68 127 0.0 0.0 0.00 0.00 0.00 99 1062.7
20221206145758 68 143 0.0 0.0 0.00 0.00 0.00 99 1062.6
20221206145257 68 143 0.0 0.0 0.00 0.00 0.00 99 1062.7
20221206144755 68 144 0.0 0.0 0.00 0.00 0.00 99 1062.8
20221206144254 68 144 0.0 0.0 0.00 0.00 0.00 99 1062.7
20221206143752 68 144 0.0 0.0 0.00 0.00 0.00 99 1062.9
20221206143250 68 144 0.0 0.0 0.00 0.00 0.00 99 1062.7
20221206142750 69 134 0.0 0.0 0.00 0.00 0.00 99 1062.7
20221206142250 69 141 0.0 0.0 0.00 0.00 0.00 99 1062.6
20221206141749 69 146 0.0 0.0 0.00 0.00 0.00 99 1062.6
20221206141249 69 134 0.0 0.0 0.00 0.00 0.00 99 1062.4
20221206140749 69 134 0.0 0.0 0.00 0.00 0.00 99 1062.5
20221206140249 69 133 0.0 0.0 0.00 0.00 0.00 99 1062.4
20221206135747 69 138 0.0 0.0 0.00 0.00 0.00 99 1062.5
20221206135247 69 138 0.0 0.0 0.00 0.00 0.00 99 1062.2
20221206134748 69 138 0.0 0.0 0.00 0.00 0.00 99 1062.3
20221206134247 69 138 0.0 0.0 0.00 0.00 0.00 99 1062.4
20221206133747 69 138 0.0 0.0 0.00 0.00 0.00 99 1062.4
20221206133245 69 146 0.0 0.0 0.00 0.00 0.00 99 1062.3
20221206132744 69 146 0.0 0.0 0.00 0.00 0.00 99 1062.5
20221206132243 69 146 0.0 0.0 0.00 0.00 0.00 99 1062.2
20221206131741 69 146 0.0 0.0 0.00 0.00 0.00 99 1062.1
20221206131239 69 146 0.0 0.0 0.00 0.00 0.00 99 1062.0
20221206130739 69 146 0.0 0.0 0.00 0.00 0.00 99 1062.2
20221206130238 70 146 0.0 0.0 0.00 0.00 0.00 99 1061.9
20221206125738 70 146 0.0 0.0 0.00 0.00 0.00 99 1062.0
20221206125238 70 146 0.0 0.0 0.00 0.00 0.00 99 1062.1
20221206124738 70 146 0.0 0.0 0.00 0.00 0.00 99 1061.9
20221206124238 70 146 0.0 0.0 0.00 0.00 0.00 99 1061.8
20221206123736 70 146 0.0 0.0 0.00 0.00 0.00 99 1061.9
20221206123235 70 146 0.0 0.0 0.00 0.00 0.00 99 1062.0
20221206122735 71 146 0.0 0.0 0.00 0.00 0.00 98 1061.7
20221206122233 71 146 0.0 0.0 0.00 0.00 0.00 98 1061.6
20221206121732 71 144 0.0 0.0 0.00 0.00 0.00 98 1061.3
20221206121230 71 131 0.0 0.0 0.00 0.00 0.00 98 1061.2
20221206120730 71 157 0.0 0.0 0.00 0.00 0.00 98 1061.3
20221206120229 72 130 0.0 0.0 0.00 0.00 0.00 98 1061.3
20221206115728 72 123 0.0 0.0 0.00 0.00 0.00 98 1061.3
20221206115226 72 130 0.0 0.0 0.00 0.00 0.00 97 1061.2
20221206114725 72 133 0.0 0.0 0.00 0.00 0.00 97 1061.1
20221206114223 72 133 0.0 0.0 0.00 0.00 0.00 97 1061.1
20221206113723 73 132 0.0 0.0 0.00 0.00 0.00 96 1061.1
20221206113221 73 127 0.0 0.0 0.00 0.00 0.00 96 1060.9
20221206112719 73 140 0.0 0.0 0.00 0.00 0.00 95 1060.7
20221206112218 73 141 0.0 0.0 0.00 0.00 0.00 95 1060.9
20221206111718 74 141 0.0 0.0 0.00 0.00 0.00 94 1060.6
20221206111216 74 130 0.0 0.0 0.00 0.00 0.00 94 1060.6
20221206110716 74 122 0.0 0.0 0.00 0.00 0.00 93 1060.7
20221206110215 75 130 0.0 0.0 0.00 0.00 0.00 92 1060.7
20221206105714 75 102 0.0 0.0 0.00 0.00 0.00 92 1060.4
20221206105212 75 114 0.0 0.0 0.00 0.00 0.00 91 1060.5
20221206104712 76 111 0.0 0.0 0.00 0.00 0.00 90 1060.3
20221206104212 77 125 0.0 0.0 0.00 0.00 0.00 88 1060.4
20221206103711 77 131 0.0 0.0 0.00 0.00 0.00 87 1060.4
20221206103210 78 125 0.0 0.0 0.00 0.00 0.00 85 1060.3
20221206102710 79 114 0.0 0.0 0.00 0.00 0.00 83 1060.3
20221206102210 80 135 0.0 0.0 0.00 0.00 0.00 81 1060.1
20221206101708 82 138 0.0 0.0 0.00 0.00 0.00 78 1060.3
20221206101206 82 138 0.0 0.0 0.00 0.00 0.00 77 1060.4
20221206100706 82 154 0.0 0.0 0.00 0.00 0.00 76 1060.5
20221206100204 83 170 0.0 1.0 0.00 0.00 0.00 75 1060.2
20221206095703 84 173 0.0 0.0 0.00 0.00 0.00 73 1060.2
20221206095202 86 191 0.0 0.0 0.00 0.00 0.00 71 1060.0
20221206094701 88 159 0.0 0.0 0.00 0.00 0.00 67 1060.0
20221206094200 89 178 0.0 1.0 0.00 0.00 0.00 65 1059.9
20221206093700 88 156 0.0 0.0 0.00 0.00 0.00 66 1059.8
20221206093200 86 144 0.0 0.0 0.00 0.00 0.00 70 1059.6
20221206092659 86 161 0.0 1.0 0.00 0.00 0.00 66 1060.0
20221206092158 86 191 1.0 2.0 0.00 0.00 0.00 63 1059.9
20221206091658 86 155 0.0 2.0 0.00 0.00 0.00 64 1059.8
20221206091157 87 173 0.0 1.0 0.00 0.00 0.00 64 1059.7
20221206090657 85 199 1.0 1.0 0.00 0.00 0.00 66 1059.7
20221206090157 85 184 1.0 2.0 0.00 0.00 0.00 67 1060.0
20221206085656 86 225 1.0 2.0 0.00 0.00 0.00 64 1059.7
20221206085154 87 162 0.0 1.0 0.00 0.00 0.00 60 1059.6
20221206084653 87 164 1.0 1.0 0.00 0.00 0.00 61 1059.7
20221206084152 86 170 1.0 3.0 0.00 0.00 0.00 62 1059.7
20221206083651 86 175 0.0 1.0 0.00 0.00 0.00 63 1059.7
20221206083150 87 206 1.0 2.0 0.00 0.00 0.00 61 1059.7
20221206082649 86 196 2.0 2.0 0.00 0.00 0.00 62 1059.9
20221206082150 86 191 3.0 3.0 0.00 0.00 0.00 63 1060.0
20221206081648 89 191 1.0 5.0 0.00 0.00 0.00 60 1059.9
20221206081147 89 191 1.0 3.0 0.00 0.00 0.00 61 1060.1
20221206080645 88 108 0.0 1.0 0.00 0.00 0.00 60 1060.0
20221206080145 87 180 2.0 2.0 0.00 0.00 0.00 63 1060.0
20221206075645 87 209 1.0 2.0 0.00 0.00 0.00 62 1060.1
20221206075144 85 194 1.0 3.0 0.00 0.00 0.00 65 1060.2
20221206074642 85 182 1.0 2.0 0.00 0.00 0.00 66 1060.3
20221206074142 85 159 0.0 2.0 0.00 0.00 0.00 65 1060.3
20221206073641 85 174 1.0 1.0 0.00 0.00 0.00 65 1060.1
20221206073139 84 67 0.0 2.0 0.00 0.00 0.00 68 1060.3
20221206072640 85 170 1.0 2.0 0.00 0.00 0.00 66 1060.4
20221206072138 85 151 0.0 1.0 0.00 0.00 0.00 64 1060.4
20221206071637 85 134 2.0 3.0 0.00 0.00 0.00 66 1060.5
20221206071137 86 131 2.0 3.0 0.00 0.00 0.00 64 1060.8
20221206070635 86 158 0.0 3.0 0.00 0.00 0.00 63 1060.7
20221206070133 86 169 1.0 3.0 0.00 0.00 0.00 64 1060.6
20221206065634 86 171 1.0 3.0 0.00 0.00 0.00 63 1061.1
20221206065133 86 199 4.0 5.0 0.00 0.00 0.00 62 1061.0
20221206064631 87 223 3.0 3.0 0.00 0.00 0.00 63 1060.8
20221206064130 85 238 2.0 3.0 0.00 0.00 0.00 66 1061.1
20221206063628 84 184 3.0 5.0 0.00 0.00 0.00 66 1061.2
20221206063127 84 194 1.0 2.0 0.00 0.00 0.00 68 1061.1
20221206062627 84 163 1.0 2.0 0.00 0.00 0.00 68 1061.5
20221206062125 84 164 0.0 1.0 0.00 0.00 0.00 66 1061.5
20221206061624 84 182 3.0 5.0 0.00 0.00 0.00 66 1061.7
20221206061123 86 192 2.0 5.0 0.00 0.00 0.00 65 1061.8
20221206060622 85 211 1.0 3.0 0.00 0.00 0.00 65 1062.1
20221206060122 85 228 3.0 7.0 0.00 0.00 0.00 65 1062.0
20221206055621 85 185 3.0 3.0 0.00 0.00 0.00 66 1062.1
20221206055120 87 168 3.0 6.0 0.00 0.00 0.00 63 1062.5
20221206054620 87 194 2.0 6.0 0.00 0.00 0.00 64 1062.4
20221206054119 87 199 1.0 5.0 0.00 0.00 0.00 63 1062.8
20221206053618 85 177 3.0 5.0 0.00 0.00 0.00 64 1062.8
20221206053117 87 94 1.0 5.0 0.00 0.00 0.00 66 1062.9
20221206052616 86 230 2.0 6.0 0.00 0.00 0.00 65 1063.0
20221206052115 85 198 1.0 2.0 0.00 0.00 0.00 66 1063.1
20221206051614 85 219 3.0 3.0 0.00 0.00 0.00 68 1063.1
20221206051113 86 167 2.0 6.0 0.00 0.00 0.00 65 1063.4
20221206050612 86 178 1.0 7.0 0.00 0.00 0.00 64 1063.3
20221206050112 86 96 3.0 5.0 0.00 0.00 0.00 64 1063.5
20221206045611 85 180 4.0 6.0 0.00 0.00 0.00 67 1063.5
20221206045110 85 177 4.0 6.0 0.00 0.00 0.00 66 1063.8
20221206044609 84 188 1.0 2.0 0.00 0.00 0.00 68 1064.0
20221206044107 84 151 3.0 5.0 0.00 0.00 0.00 69 1064.1
20221206043606 85 154 1.0 1.0 0.00 0.00 0.00 68 1064.2
20221206043104 84 134 3.0 5.0 0.00 0.00 0.00 72 1064.4
20221206042603 84 189 4.0 5.0 0.00 0.00 0.00 70 1064.4
20221206042102 83 192 1.0 5.0 0.00 0.00 0.00 73 1064.7
20221206041601 83 190 2.0 3.0 0.00 0.00 0.00 72 1064.6
20221206041059 84 139 0.0 6.0 0.00 0.00 0.00 71 1064.6
20221206040559 81 139 0.0 3.0 0.00 0.00 0.00 74 1064.6
20221206040059 82 219 3.0 5.0 0.00 0.00 0.00 73 1064.8
20221206035557 81 201 0.0 1.0 0.00 0.00 0.00 74 1064.9
20221206035057 80 203 3.0 7.0 0.00 0.00 0.00 76 1064.9
20221206034556 81 231 3.0 3.0 0.00 0.00 0.00 77 1065.1
20221206034055 80 201 3.0 5.0 0.00 0.00 0.00 76 1065.0
20221206033554 79 199 4.0 5.0 0.00 0.00 0.00 79 1065.1
20221206033055 80 190 1.0 3.0 0.00 0.00 0.00 79 1065.4
20221206032554 81 184 3.0 5.0 0.00 0.00 0.00 77 1065.5
20221206032054 81 177 1.0 3.0 0.00 0.00 0.00 77 1065.4
20221206031553 81 202 3.0 3.0 0.00 0.00 0.00 77 1065.6
20221206031051 79 159 1.0 3.0 0.00 0.00 0.00 82 1065.8
20221206030551 79 153 1.0 3.0 0.00 0.00 0.00 82 1065.7
20221206030049 78 161 1.0 1.0 0.00 0.00 0.00 82 1065.9
20221206025548 78 220 2.0 3.0 0.00 0.00 0.00 82 1065.9
20221206025045 77 146 2.0 3.0 0.00 0.00 0.00 84 1065.7
20221206024545 76 189 2.0 3.0 0.00 0.00 0.00 87 1065.6
20221206024045 75 171 2.0 3.0 0.00 0.00 0.00 88 1065.9
20221206023543 76 122 0.0 2.0 0.00 0.00 0.00 87 1066.0
20221206023042 75 172 1.0 1.0 0.00 0.00 0.00 90 1066.0
20221206022542 74 152 0.0 1.0 0.00 0.00 0.00 91 1066.1
20221206022042 73 160 0.0 1.0 0.00 0.00 0.00 92 1065.7
20221206021541 73 200 0.0 1.0 0.00 0.00 0.00 93 1065.9
20221206021040 72 162 0.0 1.0 0.00 0.00 0.00 94 1065.9
20221206020539 72 159 0.0 1.0 0.00 0.00 0.00 95 1065.9
20221206020038 71 170 1.0 1.0 0.00 0.00 0.00 96 1065.8
20221206015537 70 150 0.0 1.0 0.00 0.00 0.00 99 1065.8
20221206015034 69 175 1.0 1.0 0.00 0.00 0.00 99 1065.6
20221206014532 69 170 1.0 1.0 0.00 0.00 0.00 99 1065.8
20221206014031 69 188 0.0 0.0 0.00 0.00 0.00 99 1065.5
20221206013530 69 169 0.0 0.0 0.00 0.00 0.00 99 1065.6
20221206013028 69 150 0.0 0.0 0.00 0.00 0.00 99 1065.7
20221206012527 69 153 0.0 0.0 0.00 0.00 0.00 99 1065.3
20221206012023 69 161 0.0 0.0 0.00 0.00 0.00 99 1065.4
20221206011523 68 157 0.0 0.0 0.00 0.00 0.00 99 1065.4
20221206011022 68 150 0.0 0.0 0.00 0.00 0.00 99 1065.1
20221206010522 67 146 0.0 0.0 0.00 0.00 0.00 99 1065.3
20221206010020 68 156 0.0 0.0 0.00 0.00 0.00 99 1064.9
20221206005518 67 154 0.0 0.0 0.00 0.00 0.00 99 1064.9
20221206005016 67 187 0.0 0.0 0.00 0.00 0.00 99 1064.8
20221206004516 66 149 0.0 0.0 0.00 0.00 0.00 99 1064.7
20221206004013 66 163 0.0 0.0 0.00 0.00 0.00 99 1064.7
20221206003511 66 149 0.0 0.0 0.00 0.00 0.00 99 1064.8
20221206003009 66 163 0.0 0.0 0.00 0.00 0.00 99 1064.8
20221206002509 66 152 0.0 0.0 0.00 0.00 0.00 99 1064.6
20221206002009 66 151 0.0 0.0 0.00 0.00 0.00 99 1064.7
20221206001509 65 153 0.0 0.0 0.00 0.00 0.00 99 1064.7
20221206001008 65 148 0.0 0.0 0.00 0.00 0.00 99 1064.6
20221206000508 65 151 0.0 0.0 0.00 0.00 0.00 99 1064.3
20221206000008 65 144 0.0 0.0 0.00 0.00 0.00 99 1064.5
20221205235506 65 139 0.0 0.0 0.00 0.00 0.00 99 1064.4
20221205235005 64 115 0.0 0.0 0.00 0.00 0.00 99 1064.2
20221205234505 64 115 0.0 0.0 0.00 0.00 0.00 99 1064.5
20221205234003 64 114 0.0 0.0 0.00 0.00 0.00 99 1064.1
20221205233502 64 114 0.0 0.0 0.00 0.00 0.00 99 1064.3
20221205233000 64 114 0.0 0.0 0.00 0.00 0.00 99 1064.3
20221205232500 64 114 0.0 0.0 0.00 0.00 0.00 99 1064.1
20221205231958 64 114 0.0 0.0 0.00 0.00 0.00 99 1064.0
20221205231458 64 114 0.0 0.0 0.00 0.00 0.00 99 1064.2
20221205230957 64 114 0.0 0.0 0.00 0.00 0.00 99 1064.1
20221205230456 65 111 0.0 0.0 0.00 0.00 0.00 99 1063.8
20221205225955 65 134 0.0 0.0 0.00 0.00 0.00 99 1064.0
20221205225453 65 134 0.0 0.0 0.00 0.00 0.00 99 1063.6
20221205224952 65 134 0.0 0.0 0.00 0.00 0.00 99 1063.7
20221205224451 65 134 0.0 0.0 0.00 0.00 0.00 99 1063.7
20221205223949 65 142 0.0 0.0 0.00 0.00 0.00 99 1063.7
20221205223449 65 142 0.0 0.0 0.00 0.00 0.00 99 1063.7
20221205222947 65 143 0.0 0.0 0.00 0.00 0.00 99 1063.6
20221205222447 65 120 0.0 0.0 0.00 0.00 0.00 99 1063.4
20221205221946 65 120 0.0 0.0 0.00 0.00 0.00 99 1063.7
20221205221445 65 120 0.0 0.0 0.00 0.00 0.00 99 1063.4
20221205220945 65 120 0.0 0.0 0.00 0.00 0.00 99 1063.3
20221205220445 64 120 0.0 0.0 0.00 0.00 0.00 99 1063.4
20221205215943 65 120 0.0 0.0 0.00 0.00 0.00 99 1063.3
20221205215442 65 120 0.0 0.0 0.00 0.00 0.00 99 1063.3
20221205214942 65 120 0.0 0.0 0.00 0.00 0.00 99 1063.0